Zurück zum Katalog

CZ-6A DEB

AktivSSO
NORAD 54440·DEBRIS·🇨🇳 China

Gestartet Nov 11, 2022 von Taiyuan Satellite Launch Center

Loading…

Nächste Überflüge (nächste 24 Stunden)

TLE

AktuellSource: Space-Track

Epoche: Sep 14, 2026, 11:56 UTC

1 54440U 22151FQ  26257.49747634  .00003355  00000-0  82063-3 0  9992
2 54440  98.4800 275.4331 0077504  51.5190 309.2923 14.51391890201885

Verfolge CZ-6A DEB in Echtzeit mit AllMySat

Download on the App Store